星链-32201 (STARLINK-32201)

导读

STARLINK-32201是美国SpaceX公司星链(Starlink)星座的成员卫星,于2024年10月15日发射升空。星链项目旨在低地球轨道构建大规模卫星互联网星座,为全球偏远、欠发达地区提供高速低延迟宽带服务,填补传统通信基础设施覆盖盲区。作为新一代低轨通信卫星,该卫星延续星链技术设计,通过星间组网实现全球覆盖,可支持视频通话、在线互联网访问等应用,助力SpaceX不断扩展星链星座的服务容量与覆盖范围,进一步巩固全球低轨卫星互联网的部署规模。

基本信息
目录编号:
61512
目录名称:
STARLINK-32201
国际标识:
2024-183D
轨道中心:
EARTH
卫星名称:
星链-32201
卫星全名:
星链-32201 (STARLINK-32201)
卫星状态:
在轨 (已飞行697 天)
发射日期:
2024-10-15 UTC
国别 :
美国 (US)
星等 :
--
该卫星已列入 空间交会检测服务 Space Conjunction Data Service (SCDS) ,当前飞行风险评估等级: 无高风险
轨道信息
数据来源 国际轨道数据 AOE轨道数据
星历时间 2026-09-11T21:35:30+0800
13小时前
查看轨道信息
2026-09-06T07:00:00+0800
6天前
查看轨道信息
半长轴 6840.883km 6840.834km
偏心率 0.0001344 0.0001173
轨道倾角 53.161° 53.160°
近地点辐角 90.453° 133.362°
升交点赤经 343.262° 9.476°
平近点角 269.663° 192.059°
近地点 461.826km 461.894km
远地点 463.666km 463.5km
周期 93.849分钟 93.848分钟
每日圈数 15.343859 15.344023
详细信息
固有亮度:
5
最大亮度:
2.5
卫星平台:
Starlink V1.0
覆盖范围:
全球
运营商:
太空探索技术公司
运营商所在国:
美国
制造商(研发单位):
太空探索技术公司
制造商所在国:
美国
使用方式:
暂无
卫星简介
Starlink 计划是 SpaceX 推出的全球卫星互联网项目,通过发射低轨道卫星,为全球尤其是偏远地区提供高速、低延迟的互联网服务。自 2019 年起,Starlink 已部署数千颗卫星,旨在缩小全球数字鸿沟,推动互联网普及。该项目还为军事、航空等行业提供通信支持,带来广泛经济效益。
2D轨道图
3D轨道图
轨道高度分析图
轨道倾角分析图
轨道综合分析图
查看轨道综合分析图
与全量物体交会距离演化趋势
与全量物体交会风险概率演化趋势